Time,TemperatureF,DewpointF,PressureIn,WindDirection,WindDirectionDegrees,WindSpeedMPH,WindSpeedGustMPH,Humidity,HourlyPrecipIn,Conditions,Clouds,dailyrainin,SoftwareType,DateUTC
2013-03-02 00:00:00,24.1,19.4,30.13,NNW,333,0.0,0.0,82,0.00,,,0.00,WeatherCatV1.10B1784,2013-03-02 06:00:00,
2013-03-02 00:05:00,24.1,19.7,30.13,NNW,340,0.0,0.0,83,0.00,,,0.00,WeatherCatV1.10B1784,2013-03-02 06:05:00,
2013-03-02 00:10:00,24.1,19.7,30.13,NNE,14,0.0,0.0,83,0.00,,,0.00,WeatherCatV1.10B1784,2013-03-02 06:10:00,
2013-03-02 00:15:00,24.1,19.7,30.13,NW,319,0.0,0.0,83,0.00,,,0.00,WeatherCatV1.10B1784,2013-03-02 06:15:00,
2013-03-02 00:20:00,24.1,19.7,30.13,North,349,0.0,0.0,83,0.00,,,0.00,WeatherCatV1.10B1784,2013-03-02 06:20:00,
2013-03-02 00:25:00,24.1,19.7,30.13,NNW,337,0.0,0.0,83,0.00,,,0.00,WeatherCatV1.10B1784,2013-03-02 06:25:00,
2013-03-02 00:30:00,24.1,19.7,30.13,North,0,0.0,0.0,83,0.00,,,0.00,WeatherCatV1.10B1784,2013-03-02 06:30:00,
2013-03-02 00:35:00,24.1,19.7,30.13,NNW,328,0.0,0.0,83,0.00,,,0.00,WeatherCatV1.10B1784,2013-03-02 06:35:00,
2013-03-02 00:40:00,24.1,19.7,30.13,NW,325,0.0,0.0,83,0.00,,,0.00,WeatherCatV1.10B1784,2013-03-02 06:40:00,
2013-03-02 00:45:00,24.1,19.4,30.13,NNW,340,0.0,0.0,82,0.00,,,0.00,WeatherCatV1.10B1784,2013-03-02 06:45:00,
2013-03-02 00:50:00,24.1,19.4,30.13,NNW,340,0.0,0.0,82,0.00,,,0.00,WeatherCatV1.10B1784,2013-03-02 06:50:00,
2013-03-02 00:55:00,24.2,19.2,30.13,NNW,328,0.0,0.0,81,0.00,,,0.00,WeatherCatV1.10B1784,2013-03-02 06:55:00,
2013-03-02 01:00:00,24.2,19.2,30.12,NNW,340,0.0,0.0,81,0.00,,,0.00,WeatherCatV1.10B1784,2013-03-02 07:00:00,
2013-03-02 01:05:00,24.2,19.2,30.12,NNW,328,0.0,0.0,81,0.00,,,0.00,WeatherCatV1.10B1784,2013-03-02 07:05:00,
2013-03-02 01:10:00,24.2,18.9,30.12,NW,311,0.0,0.0,80,0.00,,,0.00,WeatherCatV1.10B1784,2013-03-02 07:10:00,
2013-03-02 01:15:00,24.2,18.9,30.12,North,349,0.0,0.0,80,0.00,,,0.00,WeatherCatV1.10B1784,2013-03-02 07:15:00,
2013-03-02 01:20:00,24.4,18.8,30.12,West,267,0.0,0.0,79,0.00,,,0.00,WeatherCatV1.10B1784,2013-03-02 07:20:00,
2013-03-02 01:25:00,24.4,18.8,30.12,NNW,332,0.0,0.0,79,0.00,,,0.00,WeatherCatV1.10B1784,2013-03-02 07:25:00,
2013-03-02 01:30:00,24.4,18.5,30.12,NNW,330,0.0,0.0,78,0.00,,,0.00,WeatherCatV1.10B1784,2013-03-02 07:30:00,
2013-03-02 01:35:00,24.4,18.5,30.12,NNW,335,0.0,0.0,78,0.00,,,0.00,WeatherCatV1.10B1784,2013-03-02 07:35:00,
2013-03-02 01:40:00,24.4,18.5,30.12,NNW,333,0.0,0.0,78,0.00,,,0.00,WeatherCatV1.10B1784,2013-03-02 07:40:00,
2013-03-02 01:45:00,24.4,18.2,30.12,North,0,0.0,0.0,77,0.00,,,0.00,WeatherCatV1.10B1784,2013-03-02 07:45:00,
2013-03-02 01:50:00,24.4,18.2,30.12,NNW,336,0.0,0.0,77,0.00,,,0.00,WeatherCatV1.10B1784,2013-03-02 07:50:00,
2013-03-02 01:55:00,24.4,18.2,30.12,NW,325,0.0,0.0,77,0.00,,,0.00,WeatherCatV1.10B1784,2013-03-02 07:55:00,
2013-03-02 02:00:00,24.5,18.0,30.12,NNW,328,0.0,0.0,76,0.00,,,0.00,WeatherCatV1.10B1784,2013-03-02 08:00:00,
2013-03-02 02:05:00,24.5,18.0,30.12,NW,326,0.0,0.0,76,0.00,,,0.00,WeatherCatV1.10B1784,2013-03-02 08:05:00,
2013-03-02 02:10:00,24.4,17.9,30.12,NNW,337,0.0,0.0,76,0.00,,,0.00,WeatherCatV1.10B1784,2013-03-02 08:10:00,
2013-03-02 02:15:00,24.4,17.9,30.12,NNW,336,0.0,0.0,76,0.00,,,0.00,WeatherCatV1.10B1784,2013-03-02 08:15:00,
2013-03-02 02:20:00,24.4,17.9,30.12,NNW,340,0.0,0.0,76,0.00,,,0.00,WeatherCatV1.10B1784,2013-03-02 08:20:00,
2013-03-02 02:25:00,24.2,17.7,30.12,NNE,18,0.0,0.0,76,0.00,,,0.00,WeatherCatV1.10B1784,2013-03-02 08:25:00,
2013-03-02 02:30:00,24.1,17.7,30.11,NW,318,0.0,0.0,76,0.00,,,0.00,WeatherCatV1.10B1784,2013-03-02 08:30:00,
2013-03-02 02:35:00,24.1,17.7,30.11,NNW,332,0.0,0.0,76,0.00,,,0.00,WeatherCatV1.10B1784,2013-03-02 08:35:00,
2013-03-02 02:40:00,24.1,17.7,30.11,NNW,342,0.0,0.0,76,0.00,,,0.00,WeatherCatV1.10B1784,2013-03-02 08:40:00,
2013-03-02 02:45:00,24.1,17.7,30.11,NW,316,0.0,0.0,76,0.00,,,0.00,WeatherCatV1.10B1784,2013-03-02 08:45:00,
2013-03-02 02:50:00,24.1,17.7,30.11,WNW,298,0.0,0.0,76,0.00,,,0.00,WeatherCatV1.10B1784,2013-03-02 08:50:00,
2013-03-02 02:55:00,24.1,18.0,30.11,NNW,344,0.0,0.0,77,0.00,,,0.00,WeatherCatV1.10B1784,2013-03-02 08:55:00,
2013-03-02 03:00:00,23.9,17.8,30.11,NW,315,0.0,0.0,77,0.00,,,0.00,WeatherCatV1.10B1784,2013-03-02 09:00:00,
2013-03-02 03:05:00,23.9,17.8,30.11,NNW,344,0.0,0.0,77,0.00,,,0.00,WeatherCatV1.10B1784,2013-03-02 09:05:00,
2013-03-02 03:10:00,23.8,17.7,30.11,NNW,340,0.0,0.0,77,0.00,,,0.00,WeatherCatV1.10B1784,2013-03-02 09:10:00,
2013-03-02 03:15:00,23.8,17.7,30.10,NW,323,0.0,0.0,77,0.00,,,0.00,WeatherCatV1.10B1784,2013-03-02 09:15:00,
2013-03-02 03:20:00,23.8,18.0,30.10,NW,315,0.0,0.0,78,0.00,,,0.00,WeatherCatV1.10B1784,2013-03-02 09:20:00,
2013-03-02 03:25:00,23.6,17.8,30.10,NW,322,0.0,0.0,78,0.00,,,0.00,WeatherCatV1.10B1784,2013-03-02 09:25:00,
2013-03-02 03:30:00,23.6,17.8,30.10,NNW,332,0.0,0.0,78,0.00,,,0.00,WeatherCatV1.10B1784,2013-03-02 09:30:00,
2013-03-02 03:35:00,23.6,17.8,30.10,WNW,292,0.0,0.0,78,0.00,,,0.00,WeatherCatV1.10B1784,2013-03-02 09:35:00,
2013-03-02 03:40:00,23.6,17.8,30.10,NW,304,0.0,0.0,78,0.00,,,0.00,WeatherCatV1.10B1784,2013-03-02 09:40:00,
2013-03-02 03:45:00,23.6,17.8,30.10,NW,313,0.0,0.0,78,0.00,,,0.00,WeatherCatV1.10B1784,2013-03-02 09:45:00,
2013-03-02 03:50:00,23.8,18.0,30.10,NW,309,0.0,0.0,78,0.00,,,0.00,WeatherCatV1.10B1784,2013-03-02 09:50:00,
2013-03-02 03:55:00,23.8,18.0,30.10,North,354,0.0,0.0,78,0.00,,,0.00,WeatherCatV1.10B1784,2013-03-02 09:55:00,
2013-03-02 04:00:00,23.8,18.0,30.10,NW,320,0.0,0.0,78,0.00,,,0.00,WeatherCatV1.10B1784,2013-03-02 10:00:00,
2013-03-02 04:05:00,23.8,18.0,30.10,NNW,340,0.0,0.0,78,0.00,,,0.00,WeatherCatV1.10B1784,2013-03-02 10:05:00,
2013-03-02 04:07:00,23.8,18.0,30.10,NW,325,0.0,0.0,78,0.00,,,0.00,WeatherCatV1.10B1784,2013-03-02 10:07:00,
2013-03-02 04:12:00,23.8,18.0,30.10,North,359,0.0,0.0,78,0.00,,,0.00,WeatherCatV1.10B1784,2013-03-02 10:12:00,
2013-03-02 04:17:00,23.8,18.0,30.11,NW,319,0.0,0.0,78,0.00,,,0.00,WeatherCatV1.10B1784,2013-03-02 10:17:00,
2013-03-02 04:22:00,23.8,18.0,30.11,NW,325,0.0,0.0,78,0.00,,,0.00,WeatherCatV1.10B1784,2013-03-02 10:22:00,
2013-03-02 04:27:00,23.8,18.0,30.11,WNW,294,0.0,0.0,78,0.00,,,0.00,WeatherCatV1.10B1784,2013-03-02 10:27:00,
2013-03-02 04:32:00,23.8,18.0,30.11,NW,318,0.0,0.0,78,0.00,,,0.00,WeatherCatV1.10B1784,2013-03-02 10:32:00,
2013-03-02 04:37:00,23.8,18.0,30.11,WNW,299,0.0,0.0,78,0.00,,,0.00,WeatherCatV1.10B1784,2013-03-02 10:37:00,
2013-03-02 04:42:00,23.6,17.8,30.11,NW,326,0.0,0.0,78,0.00,,,0.00,WeatherCatV1.10B1784,2013-03-02 10:42:00,
2013-03-02 04:47:00,23.6,17.8,30.11,NW,316,0.0,0.0,78,0.00,,,0.00,WeatherCatV1.10B1784,2013-03-02 10:47:00,
2013-03-02 04:52:00,23.6,18.1,30.11,NW,326,0.0,0.0,79,0.00,,,0.00,WeatherCatV1.10B1784,2013-03-02 10:52:00,
2013-03-02 04:57:00,23.6,18.1,30.11,NW,315,0.0,0.0,79,0.00,,,0.00,WeatherCatV1.10B1784,2013-03-02 10:57:00,
2013-03-02 05:02:00,23.6,18.1,30.12,NNW,330,0.0,0.0,79,0.00,,,0.00,WeatherCatV1.10B1784,2013-03-02 11:02:00,
2013-03-02 05:07:00,23.6,18.1,30.12,NNW,329,0.0,0.0,79,0.00,,,0.00,WeatherCatV1.10B1784,2013-03-02 11:07:00,
2013-03-02 05:12:00,23.6,18.1,30.12,NNW,335,0.0,0.0,79,0.00,,,0.00,WeatherCatV1.10B1784,2013-03-02 11:12:00,
2013-03-02 05:17:00,23.6,18.1,30.12,NNW,329,0.0,0.0,79,0.00,,,0.00,WeatherCatV1.10B1784,2013-03-02 11:17:00,
2013-03-02 05:22:00,23.6,18.1,30.12,NW,319,0.0,0.0,79,0.00,,,0.00,WeatherCatV1.10B1784,2013-03-02 11:22:00,
2013-03-02 05:27:00,23.6,18.1,30.12,North,0,0.0,0.0,79,0.00,,,0.00,WeatherCatV1.10B1784,2013-03-02 11:27:00,
2013-03-02 05:32:00,23.5,18.3,30.12,NNW,328,0.0,0.0,80,0.00,,,0.00,WeatherCatV1.10B1784,2013-03-02 11:32:00,
2013-03-02 05:37:00,23.5,18.3,30.12,NW,325,0.0,0.0,80,0.00,,,0.00,WeatherCatV1.10B1784,2013-03-02 11:37:00,
2013-03-02 05:42:00,23.3,18.1,30.12,NW,323,0.0,0.0,80,0.00,,,0.00,WeatherCatV1.10B1784,2013-03-02 11:42:00,
2013-03-02 05:47:00,23.2,18.0,30.12,NNW,336,0.0,0.0,80,0.00,,,0.00,WeatherCatV1.10B1784,2013-03-02 11:47:00,
2013-03-02 05:52:00,23.0,17.8,30.12,NNW,343,0.0,0.0,80,0.00,,,0.00,WeatherCatV1.10B1784,2013-03-02 11:52:00,
2013-03-02 05:57:00,23.0,17.8,30.12,NNW,339,0.0,0.0,80,0.00,,,0.00,WeatherCatV1.10B1784,2013-03-02 11:57:00,
2013-03-02 06:02:00,22.9,17.7,30.12,NNW,329,0.0,0.0,80,0.00,,,0.00,WeatherCatV1.10B1784,2013-03-02 12:02:00,
2013-03-02 06:07:00,22.9,17.7,30.12,NNW,337,0.0,0.0,80,0.00,,,0.00,WeatherCatV1.10B1784,2013-03-02 12:07:00,
2013-03-02 06:12:00,22.7,17.5,30.12,North,1,0.0,0.0,80,0.00,,,0.00,WeatherCatV1.10B1784,2013-03-02 12:12:00,
2013-03-02 06:17:00,22.7,17.5,30.12,NNW,335,0.0,0.0,80,0.00,,,0.00,WeatherCatV1.10B1784,2013-03-02 12:17:00,
2013-03-02 06:22:00,22.5,17.3,30.12,WNW,292,0.0,0.0,80,0.00,,,0.00,WeatherCatV1.10B1784,2013-03-02 12:22:00,
2013-03-02 06:27:00,22.2,17.0,30.12,NNW,342,0.0,0.0,80,0.00,,,0.00,WeatherCatV1.10B1784,2013-03-02 12:27:00,
2013-03-02 06:32:00,22.1,16.9,30.13,NW,315,0.0,0.0,80,0.00,,,0.00,WeatherCatV1.10B1784,2013-03-02 12:32:00,
2013-03-02 06:37:00,21.9,17.0,30.13,NNW,342,0.0,0.0,81,0.00,,,0.00,WeatherCatV1.10B1784,2013-03-02 12:37:00,
2013-03-02 06:42:00,21.9,17.0,30.13,NNW,335,0.0,0.0,81,0.00,,,0.00,WeatherCatV1.10B1784,2013-03-02 12:42:00,
2013-03-02 06:47:00,21.8,16.9,30.14,NW,320,0.0,0.0,81,0.00,,,0.00,WeatherCatV1.10B1784,2013-03-02 12:47:00,
2013-03-02 06:52:00,21.8,16.9,30.14,NNW,332,0.0,0.0,81,0.00,,,0.00,WeatherCatV1.10B1784,2013-03-02 12:52:00,
2013-03-02 06:57:00,21.6,16.7,30.14,NW,318,0.0,0.0,81,0.00,,,0.00,WeatherCatV1.10B1784,2013-03-02 12:57:00,
2013-03-02 07:02:00,21.4,16.5,30.14,NW,325,0.0,0.0,81,0.00,,,0.00,WeatherCatV1.10B1784,2013-03-02 13:02:00,
2013-03-02 07:07:00,21.3,16.1,30.14,NNW,337,0.0,0.0,80,0.00,,,0.00,WeatherCatV1.10B1784,2013-03-02 13:07:00,
2013-03-02 07:12:00,21.1,15.9,30.14,NW,309,0.0,0.0,80,0.00,,,0.00,WeatherCatV1.10B1784,2013-03-02 13:12:00,
2013-03-02 07:17:00,21.0,15.8,30.15,NW,322,0.0,0.0,80,0.00,,,0.00,WeatherCatV1.10B1784,2013-03-02 13:17:00,
2013-03-02 07:22:00,20.5,15.0,30.15,NW,322,0.0,0.0,79,0.00,,,0.00,WeatherCatV1.10B1784,2013-03-02 13:22:00,
2013-03-02 07:27:00,20.3,14.8,30.15,NW,315,0.0,0.0,79,0.00,,,0.00,WeatherCatV1.10B1784,2013-03-02 13:27:00,
2013-03-02 07:32:00,19.9,14.5,30.15,NNW,328,0.0,0.0,79,0.00,,,0.00,WeatherCatV1.10B1784,2013-03-02 13:32:00,
2013-03-02 07:37:00,19.2,13.8,30.15,NNW,337,0.0,0.0,79,0.00,,,0.00,WeatherCatV1.10B1784,2013-03-02 13:37:00,
2013-03-02 07:42:00,18.8,13.4,30.15,NNW,344,0.0,0.0,79,0.00,,,0.00,WeatherCatV1.10B1784,2013-03-02 13:42:00,
2013-03-02 07:47:00,18.4,13.0,30.16,NNW,329,0.0,0.0,79,0.00,,,0.00,WeatherCatV1.10B1784,2013-03-02 13:47:00,
2013-03-02 07:52:00,18.1,12.7,30.16,NNW,330,0.0,0.0,79,0.00,,,0.00,WeatherCatV1.10B1784,2013-03-02 13:52:00,
2013-03-02 07:57:00,18.0,12.6,30.16,NW,315,0.0,0.0,79,0.00,,,0.00,WeatherCatV1.10B1784,2013-03-02 13:57:00,
2013-03-02 08:02:00,17.8,12.4,30.16,NW,323,0.0,0.0,79,0.00,,,0.00,WeatherCatV1.10B1784,2013-03-02 14:02:00,
2013-03-02 08:07:00,18.0,12.6,30.16,NW,315,0.0,0.0,79,0.00,,,0.00,WeatherCatV1.10B1784,2013-03-02 14:07:00,
2013-03-02 08:12:00,18.1,12.7,30.16,NW,316,0.0,0.0,79,0.00,,,0.00,WeatherCatV1.10B1784,2013-03-02 14:12:00,
2013-03-02 08:17:00,18.4,12.7,30.16,WNW,298,0.0,0.0,78,0.00,,,0.00,WeatherCatV1.10B1784,2013-03-02 14:17:00,
2013-03-02 08:22:00,18.6,12.6,30.16,NNW,329,0.0,0.0,77,0.00,,,0.00,WeatherCatV1.10B1784,2013-03-02 14:22:00,
2013-03-02 08:27:00,18.6,12.6,30.16,WNW,299,0.0,0.0,77,0.00,,,0.00,WeatherCatV1.10B1784,2013-03-02 14:27:00,
2013-03-02 08:32:00,18.6,12.3,30.16,NW,311,0.0,0.0,76,0.00,,,0.00,WeatherCatV1.10B1784,2013-03-02 14:32:00,
2013-03-02 08:37:00,18.9,12.6,30.16,NNW,328,0.0,0.0,76,0.00,,,0.00,WeatherCatV1.10B1784,2013-03-02 14:37:00,
2013-03-02 08:42:00,19.1,12.2,30.16,NNW,337,0.0,0.0,74,0.00,,,0.00,WeatherCatV1.10B1784,2013-03-02 14:42:00,
2013-03-02 08:47:00,19.2,12.3,30.16,NNW,332,0.0,0.0,74,0.00,,,0.00,WeatherCatV1.10B1784,2013-03-02 14:47:00,
2013-03-02 08:52:00,19.4,12.5,30.16,NW,322,0.0,0.0,74,0.00,,,0.00,WeatherCatV1.10B1784,2013-03-02 14:52:00,
2013-03-02 08:57:00,19.7,12.8,30.16,NNW,332,0.0,0.0,74,0.00,,,0.00,WeatherCatV1.10B1784,2013-03-02 14:57:00,
2013-03-02 09:02:00,20.0,12.8,30.16,NNW,339,0.0,0.0,73,0.00,,,0.00,WeatherCatV1.10B1784,2013-03-02 15:02:00,
2013-03-02 09:07:00,20.5,13.2,30.16,NW,322,0.0,0.0,73,0.00,,,0.00,WeatherCatV1.10B1784,2013-03-02 15:07:00,
2013-03-02 09:12:00,21.0,13.4,30.16,NNW,330,0.0,0.0,72,0.00,,,0.00,WeatherCatV1.10B1784,2013-03-02 15:12:00,
2013-03-02 09:17:00,21.1,12.9,30.16,NW,309,0.0,0.0,70,0.00,,,0.00,WeatherCatV1.10B1784,2013-03-02 15:17:00,
2013-03-02 09:22:00,21.3,13.1,30.16,NNW,336,0.0,0.0,70,0.00,,,0.00,WeatherCatV1.10B1784,2013-03-02 15:22:00,
2013-03-02 09:27:00,21.1,12.5,30.16,NNW,336,0.0,0.0,69,0.00,,,0.00,WeatherCatV1.10B1784,2013-03-02 15:27:00,
2013-03-02 09:32:00,21.4,12.8,30.16,NW,325,0.0,0.0,69,0.00,,,0.00,WeatherCatV1.10B1784,2013-03-02 15:32:00,
2013-03-02 09:37:00,21.6,13.0,30.16,NW,312,0.0,0.0,69,0.00,,,0.00,WeatherCatV1.10B1784,2013-03-02 15:37:00,
2013-03-02 09:42:00,21.3,12.7,30.16,NW,320,0.0,0.0,69,0.00,,,0.00,WeatherCatV1.10B1784,2013-03-02 15:42:00,
2013-03-02 09:47:00,21.0,12.5,30.16,NNW,333,0.0,0.0,69,0.00,,,0.00,WeatherCatV1.10B1784,2013-03-02 15:47:00,
2013-03-02 09:52:00,21.1,12.9,30.16,NW,322,0.0,0.0,70,0.00,,,0.00,WeatherCatV1.10B1784,2013-03-02 15:52:00,
2013-03-02 09:57:00,21.0,12.8,30.16,NW,319,0.0,0.0,70,0.00,,,0.00,WeatherCatV1.10B1784,2013-03-02 15:57:00,
2013-03-02 10:02:00,21.1,13.2,30.16,NW,312,0.0,0.0,71,0.00,,,0.00,WeatherCatV1.10B1784,2013-03-02 16:02:00,
2013-03-02 10:07:00,21.4,13.2,30.16,NNW,330,0.0,0.0,70,0.00,,,0.00,WeatherCatV1.10B1784,2013-03-02 16:07:00,
2013-03-02 10:12:00,21.8,13.5,30.16,WNW,294,0.0,0.0,70,0.00,,,0.00,WeatherCatV1.10B1784,2013-03-02 16:12:00,
2013-03-02 10:17:00,21.6,13.4,30.16,NW,306,0.0,0.0,70,0.00,,,0.00,WeatherCatV1.10B1784,2013-03-02 16:17:00,
2013-03-02 10:22:00,21.9,13.6,30.16,NNW,336,0.0,0.0,70,0.00,,,0.00,WeatherCatV1.10B1784,2013-03-02 16:22:00,
2013-03-02 10:27:00,22.1,13.8,30.16,NW,322,0.0,0.0,70,0.00,,,0.00,WeatherCatV1.10B1784,2013-03-02 16:27:00,
2013-03-02 10:32:00,22.2,14.3,30.16,NW,320,0.0,0.0,71,0.00,,,0.00,WeatherCatV1.10B1784,2013-03-02 16:32:00,
2013-03-02 10:37:00,21.9,14.0,30.16,West,274,0.0,0.0,71,0.00,,,0.00,WeatherCatV1.10B1784,2013-03-02 16:37:00,
2013-03-02 10:42:00,22.1,14.5,30.16,NNW,343,0.0,0.0,72,0.00,,,0.00,WeatherCatV1.10B1784,2013-03-02 16:42:00,
2013-03-02 10:47:00,21.9,14.3,30.16,NW,315,0.0,0.0,72,0.00,,,0.00,WeatherCatV1.10B1784,2013-03-02 16:47:00,
2013-03-02 10:52:00,22.4,15.1,30.16,West,274,0.0,0.0,73,0.00,,,0.00,WeatherCatV1.10B1784,2013-03-02 16:52:00,
2013-03-02 10:57:00,22.9,15.2,30.16,WNW,302,0.0,0.0,72,0.00,,,0.00,WeatherCatV1.10B1784,2013-03-02 16:57:00,
2013-03-02 11:02:00,23.0,15.0,30.17,NNW,340,0.0,0.0,71,0.00,,,0.00,WeatherCatV1.10B1784,2013-03-02 17:02:00,
2013-03-02 11:07:00,23.0,15.0,30.17,WNW,295,0.0,0.0,71,0.00,,,0.00,WeatherCatV1.10B1784,2013-03-02 17:07:00,
2013-03-02 11:12:00,23.5,15.5,30.17,NW,318,0.0,0.0,71,0.00,,,0.00,WeatherCatV1.10B1784,2013-03-02 17:12:00,
2013-03-02 11:17:00,23.8,15.1,30.16,NNW,330,0.0,0.0,69,0.00,,,0.00,WeatherCatV1.10B1784,2013-03-02 17:17:00,
2013-03-02 11:22:00,23.6,15.3,30.16,WNW,302,0.0,0.0,70,0.00,,,0.00,WeatherCatV1.10B1784,2013-03-02 17:22:00,
2013-03-02 11:27:00,23.6,14.9,30.16,WNW,291,0.0,0.0,69,0.00,,,0.00,WeatherCatV1.10B1784,2013-03-02 17:27:00,
2013-03-02 11:32:00,23.5,15.2,30.16,West,272,0.0,0.0,70,0.00,,,0.00,WeatherCatV1.10B1784,2013-03-02 17:32:00,
2013-03-02 11:37:00,23.3,14.7,30.16,NNW,332,0.0,0.0,69,0.00,,,0.00,WeatherCatV1.10B1784,2013-03-02 17:37:00,
2013-03-02 11:42:00,23.8,15.1,30.16,NNW,333,0.0,0.0,69,0.00,,,0.00,WeatherCatV1.10B1784,2013-03-02 17:42:00,
2013-03-02 11:47:00,23.8,15.1,30.16,NNW,328,0.0,0.0,69,0.00,,,0.00,WeatherCatV1.10B1784,2013-03-02 17:47:00,
2013-03-02 11:52:00,23.9,15.2,30.16,NW,323,0.0,0.0,69,0.00,,,0.00,WeatherCatV1.10B1784,2013-03-02 17:52:00,
2013-03-02 11:57:00,24.1,15.4,30.16,NW,325,0.0,0.0,69,0.00,,,0.00,WeatherCatV1.10B1784,2013-03-02 17:57:00,
2013-03-02 12:02:00,24.5,15.5,30.16,NNW,344,0.0,0.0,68,0.00,,,0.00,WeatherCatV1.10B1784,2013-03-02 18:02:00,
2013-03-02 12:07:00,24.5,15.5,30.16,NNW,339,0.0,0.0,68,0.00,,,0.00,WeatherCatV1.10B1784,2013-03-02 18:07:00,
2013-03-02 12:13:00,24.4,14.7,30.16,North,354,0.0,0.0,66,0.00,,,0.00,WeatherCatV1.10B1784,2013-03-02 18:13:00,
2013-03-02 12:18:00,24.5,15.1,30.16,NW,320,0.0,0.0,67,0.00,,,0.00,WeatherCatV1.10B1784,2013-03-02 18:18:00,
2013-03-02 12:23:00,25.0,15.3,30.16,NW,326,0.0,0.0,66,0.00,,,0.00,WeatherCatV1.10B1784,2013-03-02 18:23:00,
2013-03-02 12:28:00,25.0,15.3,30.16,NNW,332,0.0,0.0,66,0.00,,,0.00,WeatherCatV1.10B1784,2013-03-02 18:28:00,
2013-03-02 12:33:00,25.1,15.4,30.15,North,349,0.0,0.0,66,0.00,,,0.00,WeatherCatV1.10B1784,2013-03-02 18:33:00,
2013-03-02 12:38:00,25.1,15.0,30.15,NW,319,0.0,0.0,65,0.00,,,0.00,WeatherCatV1.10B1784,2013-03-02 18:38:00,
2013-03-02 12:43:00,25.3,15.2,30.15,NNW,337,0.0,0.0,65,0.00,,,0.00,WeatherCatV1.10B1784,2013-03-02 18:43:00,
2013-03-02 12:48:00,25.6,15.1,30.15,NNW,336,0.0,0.0,64,0.00,,,0.00,WeatherCatV1.10B1784,2013-03-02 18:48:00,
2013-03-02 12:53:00,25.7,15.2,30.15,WNW,301,0.0,0.0,64,0.00,,,0.00,WeatherCatV1.10B1784,2013-03-02 18:53:00,
2013-03-02 12:58:00,25.8,15.3,30.15,NW,320,0.0,0.0,64,0.00,,,0.00,WeatherCatV1.10B1784,2013-03-02 18:58:00,
2013-03-02 13:03:00,25.6,15.1,30.14,NW,323,0.0,0.0,64,0.00,,,0.00,WeatherCatV1.10B1784,2013-03-02 19:03:00,
2013-03-02 13:08:00,26.1,15.6,30.14,NNW,329,0.0,0.0,64,0.00,,,0.00,WeatherCatV1.10B1784,2013-03-02 19:08:00,
2013-03-02 13:13:00,26.1,15.6,30.14,NNW,342,0.0,0.0,64,0.00,,,0.00,WeatherCatV1.10B1784,2013-03-02 19:13:00,
2013-03-02 13:18:00,25.8,15.0,30.14,NNW,340,0.0,0.0,63,0.00,,,0.00,WeatherCatV1.10B1784,2013-03-02 19:18:00,
2013-03-02 13:23:00,25.7,14.5,30.14,NW,326,0.0,0.0,62,0.00,,,0.00,WeatherCatV1.10B1784,2013-03-02 19:23:00,
2013-03-02 13:28:00,25.6,14.8,30.14,NNW,342,0.0,0.0,63,0.00,,,0.00,WeatherCatV1.10B1784,2013-03-02 19:28:00,
2013-03-02 13:33:00,25.8,15.0,30.14,WNW,289,0.0,0.0,63,0.00,,,0.00,WeatherCatV1.10B1784,2013-03-02 19:33:00,
2013-03-02 13:38:00,25.4,14.2,30.14,NNW,342,0.0,0.0,62,0.00,,,0.00,WeatherCatV1.10B1784,2013-03-02 19:38:00,
2013-03-02 13:43:00,25.6,14.4,30.14,NNW,346,0.0,0.0,62,0.00,,,0.00,WeatherCatV1.10B1784,2013-03-02 19:43:00,
2013-03-02 13:48:00,25.4,14.2,30.13,NNW,340,0.0,0.0,62,0.00,,,0.00,WeatherCatV1.10B1784,2013-03-02 19:48:00,
2013-03-02 13:53:00,25.3,14.1,30.13,NNW,342,0.0,0.0,62,0.00,,,0.00,WeatherCatV1.10B1784,2013-03-02 19:53:00,
2013-03-02 13:58:00,25.3,14.1,30.13,NNW,340,0.0,0.0,62,0.00,,,0.00,WeatherCatV1.10B1784,2013-03-02 19:58:00,
2013-03-02 14:03:00,25.4,14.6,30.13,SW,236,0.0,0.0,63,0.00,,,0.00,WeatherCatV1.10B1784,2013-03-02 20:03:00,
2013-03-02 14:08:00,25.6,15.1,30.13,NNW,339,0.0,0.0,64,0.00,,,0.00,WeatherCatV1.10B1784,2013-03-02 20:08:00,
2013-03-02 14:13:00,25.4,14.6,30.13,NNW,330,0.0,0.0,63,0.00,,,0.00,WeatherCatV1.10B1784,2013-03-02 20:13:00,
2013-03-02 14:18:00,25.1,13.9,30.13,North,10,0.0,0.0,62,0.00,,,0.00,WeatherCatV1.10B1784,2013-03-02 20:18:00,
2013-03-02 14:23:00,24.8,13.7,30.13,West,272,0.0,0.0,62,0.00,,,0.00,WeatherCatV1.10B1784,2013-03-02 20:23:00,
2013-03-02 14:28:00,24.8,14.0,30.13,NNW,329,0.0,0.0,63,0.00,,,0.00,WeatherCatV1.10B1784,2013-03-02 20:28:00,
2013-03-02 14:33:00,24.7,13.9,30.13,NW,323,0.0,0.0,63,0.00,,,0.00,WeatherCatV1.10B1784,2013-03-02 20:33:00,
2013-03-02 14:38:00,25.0,13.8,30.13,North,0,0.0,0.0,62,0.00,,,0.00,WeatherCatV1.10B1784,2013-03-02 20:38:00,
2013-03-02 14:43:00,25.1,13.9,30.13,NW,326,0.0,0.0,62,0.00,,,0.00,WeatherCatV1.10B1784,2013-03-02 20:43:00,
2013-03-02 14:48:00,25.0,13.8,30.13,NNW,328,0.0,0.0,62,0.00,,,0.00,WeatherCatV1.10B1784,2013-03-02 20:48:00,
2013-03-02 14:53:00,25.1,13.9,30.13,NNW,346,0.0,0.0,62,0.00,,,0.00,WeatherCatV1.10B1784,2013-03-02 20:53:00,
2013-03-02 14:58:00,25.3,14.1,30.13,North,354,0.0,0.0,62,0.00,,,0.00,WeatherCatV1.10B1784,2013-03-02 20:58:00,
2013-03-02 15:03:00,25.4,14.2,30.14,NNW,329,0.0,0.0,62,0.00,,,0.00,WeatherCatV1.10B1784,2013-03-02 21:03:00,
2013-03-02 15:08:00,25.4,14.2,30.14,NW,308,0.0,0.0,62,0.00,,,0.00,WeatherCatV1.10B1784,2013-03-02 21:08:00,
2013-03-02 15:13:00,25.6,14.8,30.14,NNW,332,0.0,0.0,63,0.00,,,0.00,WeatherCatV1.10B1784,2013-03-02 21:13:00,
2013-03-02 15:18:00,25.6,14.4,30.13,NW,322,0.0,0.0,62,0.00,,,0.00,WeatherCatV1.10B1784,2013-03-02 21:18:00,
2013-03-02 15:23:00,25.3,13.8,30.13,NNW,337,0.0,0.0,61,0.00,,,0.00,WeatherCatV1.10B1784,2013-03-02 21:23:00,
2013-03-02 15:28:00,25.4,14.2,30.13,NNW,344,0.0,0.0,62,0.00,,,0.01,WeatherCatV1.10B1784,2013-03-02 21:28:00,
2013-03-02 15:33:00,25.4,13.9,30.12,NNW,337,0.0,0.0,61,0.00,,,0.01,WeatherCatV1.10B1784,2013-03-02 21:33:00,
2013-03-02 15:38:00,25.4,13.9,30.12,NNW,337,0.0,0.0,61,0.00,,,0.01,WeatherCatV1.10B1784,2013-03-02 21:38:00,
2013-03-02 15:43:00,25.4,13.5,30.12,NNW,333,0.0,0.0,60,0.00,,,0.01,WeatherCatV1.10B1784,2013-03-02 21:43:00,
2013-03-02 15:48:00,25.3,13.8,30.12,NNW,339,0.0,0.0,61,0.00,,,0.01,WeatherCatV1.10B1784,2013-03-02 21:48:00,
2013-03-02 15:53:00,25.4,14.2,30.12,NNW,344,0.0,0.0,62,0.00,,,0.01,WeatherCatV1.10B1784,2013-03-02 21:53:00,
2013-03-02 15:58:00,25.3,13.8,30.12,NE,47,0.0,0.0,61,0.00,,,0.01,WeatherCatV1.10B1784,2013-03-02 21:58:00,
2013-03-02 16:03:00,25.1,13.6,30.12,NNW,335,0.0,0.0,61,0.00,,,0.01,WeatherCatV1.10B1784,2013-03-02 22:03:00,
2013-03-02 16:08:00,25.3,14.1,30.12,NW,325,0.0,0.0,62,0.00,,,0.01,WeatherCatV1.10B1784,2013-03-02 22:08:00,
2013-03-02 16:13:00,25.3,14.1,30.12,North,349,0.0,0.0,62,0.00,,,0.01,WeatherCatV1.10B1784,2013-03-02 22:13:00,
2013-03-02 16:18:00,25.3,14.1,30.13,NNW,330,0.0,0.0,62,0.00,,,0.01,WeatherCatV1.10B1784,2013-03-02 22:18:00,
2013-03-02 16:23:00,25.1,13.9,30.13,NW,315,0.0,0.0,62,0.00,,,0.01,WeatherCatV1.10B1784,2013-03-02 22:23:00,
2013-03-02 16:28:00,25.1,13.9,30.13,NNW,343,0.0,0.0,62,0.00,,,0.01,WeatherCatV1.10B1784,2013-03-02 22:28:00,
2013-03-02 16:33:00,25.1,13.9,30.13,WNW,296,0.0,0.0,62,0.00,,,0.01,WeatherCatV1.10B1784,2013-03-02 22:33:00,
2013-03-02 16:38:00,25.1,13.9,30.13,NW,318,0.0,0.0,62,0.00,,,0.01,WeatherCatV1.10B1784,2013-03-02 22:38:00,
2013-03-02 16:43:00,25.0,13.8,30.13,NNW,329,0.0,0.0,62,0.00,,,0.01,WeatherCatV1.10B1784,2013-03-02 22:43:00,
2013-03-02 16:48:00,25.0,13.8,30.13,NW,325,0.0,0.0,62,0.00,,,0.01,WeatherCatV1.10B1784,2013-03-02 22:48:00,
2013-03-02 16:53:00,24.8,13.3,30.13,NNW,339,0.0,0.0,61,0.00,,,0.01,WeatherCatV1.10B1784,2013-03-02 22:53:00,
2013-03-02 16:58:00,24.7,12.8,30.13,NNW,328,0.0,0.0,60,0.00,,,0.01,WeatherCatV1.10B1784,2013-03-02 22:58:00,
2013-03-02 17:03:00,24.7,12.8,30.13,NNW,330,0.0,0.0,60,0.00,,,0.01,WeatherCatV1.10B1784,2013-03-02 23:03:00,
2013-03-02 17:08:00,24.4,12.2,30.13,North,359,0.0,0.0,59,0.00,,,0.01,WeatherCatV1.10B1784,2013-03-02 23:08:00,
2013-03-02 17:13:00,24.4,12.5,30.13,NNW,342,0.0,0.0,60,0.00,,,0.01,WeatherCatV1.10B1784,2013-03-02 23:13:00,
2013-03-02 17:18:00,24.2,12.0,30.14,NNW,330,0.0,0.0,59,0.00,,,0.01,WeatherCatV1.10B1784,2013-03-02 23:18:00,
2013-03-02 17:23:00,24.1,12.3,30.14,NNW,335,0.0,0.0,60,0.00,,,0.01,WeatherCatV1.10B1784,2013-03-02 23:23:00,
2013-03-02 17:28:00,23.9,12.1,30.14,NNW,342,0.0,0.0,60,0.00,,,0.01,WeatherCatV1.10B1784,2013-03-02 23:28:00,
2013-03-02 17:33:00,23.6,12.2,30.14,NNW,330,0.0,0.0,61,0.00,,,0.01,WeatherCatV1.10B1784,2013-03-02 23:33:00,
2013-03-02 17:38:00,23.5,12.4,30.14,NW,318,0.0,0.0,62,0.00,,,0.01,WeatherCatV1.10B1784,2013-03-02 23:38:00,
2013-03-02 17:43:00,23.2,12.5,30.14,NW,318,0.0,0.0,63,0.00,,,0.01,WeatherCatV1.10B1784,2013-03-02 23:43:00,
2013-03-02 17:48:00,23.0,12.3,30.14,NW,311,0.0,0.0,63,0.00,,,0.01,WeatherCatV1.10B1784,2013-03-02 23:48:00,
2013-03-02 17:53:00,22.9,12.2,30.14,WNW,301,0.0,0.0,63,0.00,,,0.01,WeatherCatV1.10B1784,2013-03-02 23:53:00,
2013-03-02 17:58:00,22.5,12.2,30.14,WNW,294,0.0,0.0,64,0.00,,,0.01,WeatherCatV1.10B1784,2013-03-02 23:58:00,
2013-03-02 18:03:00,22.4,12.1,30.14,WNW,294,0.0,0.0,64,0.00,,,0.01,WeatherCatV1.10B1784,2013-03-03 00:03:00,
2013-03-02 18:08:00,22.2,11.9,30.14,WNW,298,0.0,0.0,64,0.00,,,0.01,WeatherCatV1.10B1784,2013-03-03 00:08:00,
2013-03-02 18:13:00,21.9,12.0,30.14,WNW,296,0.0,0.0,65,0.00,,,0.01,WeatherCatV1.10B1784,2013-03-03 00:13:00,
2013-03-02 18:18:00,21.8,11.9,30.14,WNW,296,0.0,0.0,65,0.00,,,0.01,WeatherCatV1.10B1784,2013-03-03 00:18:00,
2013-03-02 18:23:00,21.6,11.7,30.14,WNW,296,0.0,0.0,65,0.00,,,0.01,WeatherCatV1.10B1784,2013-03-03 00:23:00,
2013-03-02 18:28:00,21.4,11.5,30.14,WNW,296,0.0,0.0,65,0.00,,,0.01,WeatherCatV1.10B1784,2013-03-03 00:28:00,
2013-03-02 18:33:00,21.3,11.7,30.15,WNW,298,0.0,0.0,66,0.00,,,0.01,WeatherCatV1.10B1784,2013-03-03 00:33:00,
2013-03-02 18:38:00,21.1,11.5,30.15,WNW,296,0.0,0.0,66,0.00,,,0.01,WeatherCatV1.10B1784,2013-03-03 00:38:00,
2013-03-02 18:43:00,21.0,11.5,30.15,WNW,296,0.0,0.0,66,0.00,,,0.01,WeatherCatV1.10B1784,2013-03-03 00:43:00,
2013-03-02 18:48:00,20.6,11.4,30.15,WNW,296,0.0,0.0,67,0.00,,,0.01,WeatherCatV1.10B1784,2013-03-03 00:48:00,
2013-03-02 18:53:00,20.5,11.3,30.15,WNW,296,0.0,0.0,67,0.00,,,0.01,WeatherCatV1.10B1784,2013-03-03 00:53:00,
2013-03-02 18:58:00,20.3,11.5,30.15,WNW,296,0.0,0.0,68,0.00,,,0.01,WeatherCatV1.10B1784,2013-03-03 00:58:00,
2013-03-02 19:03:00,20.2,11.7,30.15,WNW,296,0.0,0.0,69,0.00,,,0.01,WeatherCatV1.10B1784,2013-03-03 01:03:00,
2013-03-02 19:08:00,20.0,11.5,30.15,WNW,296,0.0,0.0,69,0.00,,,0.01,WeatherCatV1.10B1784,2013-03-03 01:08:00,
2013-03-02 19:13:00,19.9,11.7,30.15,WNW,296,0.0,0.0,70,0.00,,,0.01,WeatherCatV1.10B1784,2013-03-03 01:13:00,
2013-03-02 19:18:00,19.7,11.5,30.15,WNW,298,0.0,0.0,70,0.00,,,0.01,WeatherCatV1.10B1784,2013-03-03 01:18:00,
2013-03-02 19:23:00,19.5,11.7,30.15,WNW,298,0.0,0.0,71,0.00,,,0.01,WeatherCatV1.10B1784,2013-03-03 01:23:00,
2013-03-02 19:28:00,19.5,11.7,30.15,WNW,299,0.0,0.0,71,0.00,,,0.01,WeatherCatV1.10B1784,2013-03-03 01:28:00,
2013-03-02 19:33:00,19.4,11.6,30.15,WNW,299,0.0,0.0,71,0.00,,,0.01,WeatherCatV1.10B1784,2013-03-03 01:33:00,
2013-03-02 19:38:00,19.2,11.7,30.15,WNW,299,0.0,0.0,72,0.00,,,0.01,WeatherCatV1.10B1784,2013-03-03 01:38:00,
2013-03-02 19:43:00,18.9,11.4,30.15,WNW,299,0.0,0.0,72,0.00,,,0.01,WeatherCatV1.10B1784,2013-03-03 01:43:00,
2013-03-02 19:48:00,18.9,11.4,30.15,WNW,299,0.0,0.0,72,0.00,,,0.01,WeatherCatV1.10B1784,2013-03-03 01:48:00,
2013-03-02 19:53:00,18.6,11.1,30.15,WNW,299,0.0,0.0,72,0.00,,,0.01,WeatherCatV1.10B1784,2013-03-03 01:53:00,
2013-03-02 19:58:00,18.6,11.1,30.15,WNW,299,0.0,0.0,72,0.00,,,0.01,WeatherCatV1.10B1784,2013-03-03 01:58:00,
2013-03-02 20:03:00,18.4,11.2,30.15,WNW,299,0.0,0.0,73,0.00,,,0.01,WeatherCatV1.10B1784,2013-03-03 02:03:00,
2013-03-02 20:08:00,18.1,10.9,30.15,WNW,299,0.0,0.0,73,0.00,,,0.01,WeatherCatV1.10B1784,2013-03-03 02:08:00,
2013-03-02 20:13:00,18.0,10.8,30.15,WNW,299,0.0,0.0,73,0.00,,,0.01,WeatherCatV1.10B1784,2013-03-03 02:13:00,
2013-03-02 20:18:00,17.8,10.6,30.15,WNW,298,0.0,0.0,73,0.00,,,0.01,WeatherCatV1.10B1784,2013-03-03 02:18:00,
2013-03-02 20:23:00,17.7,10.5,30.15,WNW,299,0.0,0.0,73,0.00,,,0.01,WeatherCatV1.10B1784,2013-03-03 02:23:00,
2013-03-02 20:28:00,17.7,10.8,30.15,WNW,299,0.0,0.0,74,0.00,,,0.01,WeatherCatV1.10B1784,2013-03-03 02:28:00,
2013-03-02 20:33:00,17.5,10.7,30.14,WNW,299,0.0,0.0,74,0.00,,,0.01,WeatherCatV1.10B1784,2013-03-03 02:33:00,
2013-03-02 20:38:00,17.2,10.4,30.14,WNW,299,0.0,0.0,74,0.00,,,0.01,WeatherCatV1.10B1784,2013-03-03 02:38:00,
2013-03-02 20:43:00,17.0,10.5,30.14,WNW,299,0.0,0.0,75,0.00,,,0.01,WeatherCatV1.10B1784,2013-03-03 02:43:00,
2013-03-02 20:48:00,17.0,10.5,30.15,WNW,299,0.0,0.0,75,0.00,,,0.01,WeatherCatV1.10B1784,2013-03-03 02:48:00,
2013-03-02 20:53:00,16.9,10.4,30.15,WNW,299,0.0,0.0,75,0.00,,,0.01,WeatherCatV1.10B1784,2013-03-03 02:53:00,
2013-03-02 20:58:00,16.7,10.5,30.15,WNW,299,0.0,0.0,76,0.00,,,0.01,WeatherCatV1.10B1784,2013-03-03 02:58:00,
2013-03-02 21:03:00,16.5,10.3,30.15,WNW,299,0.0,0.0,76,0.00,,,0.01,WeatherCatV1.10B1784,2013-03-03 03:03:00,
2013-03-02 21:08:00,16.4,10.2,30.15,WNW,299,0.0,0.0,76,0.00,,,0.01,WeatherCatV1.10B1784,2013-03-03 03:08:00,
2013-03-02 21:13:00,16.2,10.3,30.15,WNW,299,0.0,0.0,77,0.00,,,0.01,WeatherCatV1.10B1784,2013-03-03 03:13:00,
2013-03-02 21:18:00,16.2,10.3,30.15,WNW,299,0.0,0.0,77,0.00,,,0.01,WeatherCatV1.10B1784,2013-03-03 03:18:00,
2013-03-02 21:23:00,16.2,10.3,30.15,WNW,299,0.0,0.0,77,0.00,,,0.01,WeatherCatV1.10B1784,2013-03-03 03:23:00,
2013-03-02 21:28:00,16.1,10.2,30.15,WNW,299,0.0,0.0,77,0.00,,,0.01,WeatherCatV1.10B1784,2013-03-03 03:28:00,
2013-03-02 21:33:00,15.9,10.0,30.15,WNW,299,0.0,0.0,77,0.00,,,0.01,WeatherCatV1.10B1784,2013-03-03 03:33:00,
2013-03-02 21:38:00,15.7,9.8,30.15,WNW,299,0.0,0.0,77,0.00,,,0.01,WeatherCatV1.10B1784,2013-03-03 03:38:00,
2013-03-02 21:43:00,15.6,10.0,30.15,WNW,299,0.0,0.0,78,0.00,,,0.01,WeatherCatV1.10B1784,2013-03-03 03:43:00,
2013-03-02 21:48:00,15.4,9.8,30.15,WNW,299,0.0,0.0,78,0.00,,,0.01,WeatherCatV1.10B1784,2013-03-03 03:48:00,
2013-03-02 21:53:00,15.2,9.6,30.15,WNW,299,0.0,0.0,78,0.00,,,0.01,WeatherCatV1.10B1784,2013-03-03 03:53:00,
2013-03-02 21:58:00,14.9,9.3,30.15,WNW,299,0.0,0.0,78,0.00,,,0.01,WeatherCatV1.10B1784,2013-03-03 03:58:00,
2013-03-02 22:03:00,14.8,9.5,30.14,WNW,299,0.0,0.0,79,0.00,,,0.01,WeatherCatV1.10B1784,2013-03-03 04:03:00,
2013-03-02 22:08:00,14.6,9.3,30.14,WNW,299,0.0,0.0,79,0.00,,,0.01,WeatherCatV1.10B1784,2013-03-03 04:08:00,
2013-03-02 22:13:00,14.4,9.1,30.14,WNW,299,0.0,0.0,79,0.00,,,0.01,WeatherCatV1.10B1784,2013-03-03 04:13:00,
2013-03-02 22:18:00,14.3,9.3,30.14,WNW,299,0.0,0.0,80,0.00,,,0.01,WeatherCatV1.10B1784,2013-03-03 04:18:00,
2013-03-02 22:23:00,14.3,9.3,30.14,WNW,299,0.0,0.0,80,0.00,,,0.01,WeatherCatV1.10B1784,2013-03-03 04:23:00,
2013-03-02 22:28:00,14.3,9.6,30.14,WNW,299,0.0,0.0,81,0.00,,,0.01,WeatherCatV1.10B1784,2013-03-03 04:28:00,
2013-03-02 22:33:00,14.3,9.6,30.14,WNW,299,0.0,0.0,81,0.00,,,0.01,WeatherCatV1.10B1784,2013-03-03 04:33:00,
2013-03-02 22:38:00,14.4,9.7,30.14,WNW,299,0.0,0.0,81,0.00,,,0.01,WeatherCatV1.10B1784,2013-03-03 04:38:00,
2013-03-02 22:43:00,14.3,9.3,30.14,WNW,299,0.0,0.0,80,0.00,,,0.01,WeatherCatV1.10B1784,2013-03-03 04:43:00,
2013-03-02 22:48:00,14.1,9.1,30.14,WNW,299,0.0,0.0,80,0.00,,,0.01,WeatherCatV1.10B1784,2013-03-03 04:48:00,
2013-03-02 22:53:00,13.8,8.8,30.14,WNW,299,0.0,0.0,80,0.00,,,0.01,WeatherCatV1.10B1784,2013-03-03 04:53:00,
2013-03-02 22:58:00,13.5,8.8,30.14,WNW,299,0.0,0.0,81,0.00,,,0.01,WeatherCatV1.10B1784,2013-03-03 04:58:00,
2013-03-02 23:00:00,13.5,8.8,30.14,WNW,299,0.0,0.0,81,0.00,,,0.01,WeatherCatV1.10B1784,2013-03-03 05:00:00,
2013-03-02 23:05:00,13.3,8.6,30.14,WNW,299,0.0,0.0,81,0.00,,,0.01,WeatherCatV1.10B1784,2013-03-03 05:05:00,
2013-03-02 23:10:00,12.9,8.2,30.14,WNW,299,0.0,0.0,81,0.00,,,0.01,WeatherCatV1.10B1784,2013-03-03 05:10:00,
2013-03-02 23:15:00,12.8,8.1,30.13,WNW,299,0.0,0.0,81,0.00,,,0.01,WeatherCatV1.10B1784,2013-03-03 05:15:00,
2013-03-02 23:20:00,12.6,8.2,30.13,WNW,299,0.0,0.0,82,0.00,,,0.01,WeatherCatV1.10B1784,2013-03-03 05:20:00,
2013-03-02 23:25:00,12.4,8.0,30.13,WNW,299,0.0,0.0,82,0.00,,,0.01,WeatherCatV1.10B1784,2013-03-03 05:25:00,
2013-03-02 23:30:00,12.3,7.9,30.13,WNW,299,0.0,0.0,82,0.00,,,0.01,WeatherCatV1.10B1784,2013-03-03 05:30:00,
2013-03-02 23:35:00,11.9,7.5,30.13,WNW,299,0.0,0.0,82,0.00,,,0.01,WeatherCatV1.10B1784,2013-03-03 05:35:00,
2013-03-02 23:40:00,11.7,7.3,30.13,WNW,299,0.0,0.0,82,0.00,,,0.01,WeatherCatV1.10B1784,2013-03-03 05:40:00,
2013-03-02 23:45:00,11.6,7.5,30.13,WNW,299,0.0,0.0,83,0.00,,,0.01,WeatherCatV1.10B1784,2013-03-03 05:45:00,
2013-03-02 23:50:00,11.7,7.8,30.13,WNW,299,0.0,0.0,84,0.00,,,0.01,WeatherCatV1.10B1784,2013-03-03 05:50:00,
2013-03-02 23:55:00,11.9,8.0,30.13,WNW,299,0.0,0.0,84,0.00,,,0.01,WeatherCatV1.10B1784,2013-03-03 05:55:00,